Home   Weather   Grand Prairie   Past weeks
Flag for USA

Past Weather in Grand Prairie, Texas, USA — Yesterday and Last 2 Weeks

Now
75 °F

Sunny.


Feels Like: 76 °F
Forecast: 77 / 51 °F
Wind: 10 mph from East

Location: Grand Prairie Municipal Airport

Current Time: Oct 18, 2019 at 4:42:43 pm

Latest Report: Oct 18, 2019 at 2:50 pm


Visibility: 10 mi

Pressure: 29.80 "Hg

Humidity: 24%

Dew Point: 36 °F

Location of Grand PrairieLocation

Past Weather in Grand Prairie — Graph

°F

Grand Prairie Temperature Yesterday

Maximum temperature yesterday: 72 °F (at 3:50 pm)
Minimum temperature yesterday: 50 °F (at 6:50 am)
Average temperature yesterday: 57 °F

High & Low Weather Summary for the Past Weeks

 TemperatureHumidityPressure
High97 °F (Oct 6, 2:50 pm)100% (Oct 10, 10:15 pm)30.32 "Hg (Oct 10, 10:15 pm)
Low43 °F (Oct 11, 7:50 am)15% (Oct 12, 5:50 pm)29.74 "Hg (Oct 10, 7:50 pm)
Average68 °F60%30.04 "Hg
* Reported Oct 3 2:50 pm — Oct 18 2:50 pm, Grand Prairie. Weather by CustomWeather, © 2019

Note: Actual official high and low records may vary slightly from our data, if they occured in-between our weather recording intervals... More about our weather records

Advertising

Grand Prairie Weather History for the Previous 24 Hours

Scroll right to see more
 ConditionsComfort  
Time TempWeatherWind HumidityBarometerVisibility
2:50 pm
Fri, Oct 18
75 °FSunny.10 mph24%29.80 "Hg10 mi
1:50 pm73 °FSunny.8 mph27%29.83 "Hg10 mi
12:50 pm70 °FSunny.8 mph35%29.87 "Hg10 mi
11:50 am66 °FSunny.8 mph46%29.90 "Hg10 mi
9:50 am61 °FSunny.9 mph63%29.92 "Hg10 mi
8:50 am55 °FSunny.6 mph77%29.92 "Hg10 mi
7:50 am52 °FSunny.No wind82%29.92 "Hg10 mi
6:50 am52 °FClear.6 mph82%29.92 "Hg10 mi
6:35 am52 °FClear.5 mph81%29.91 "Hg10 mi
6:15 am53 °FClear.3 mph80%29.92 "Hg10 mi
5:55 am52 °FClear.3 mph81%29.91 "Hg10 mi
5:35 am53 °FClear.3 mph79%29.92 "Hg10 mi
5:15 am53 °FClear.5 mph80%29.93 "Hg10 mi
4:55 am53 °FClear.3 mph79%29.93 "Hg10 mi
4:35 am53 °FClear.5 mph80%29.92 "Hg10 mi
4:15 am53 °FClear.3 mph78%29.93 "Hg10 mi
3:35 am54 °FClear.3 mph76%29.93 "Hg10 mi
2:55 am55 °FClear.No wind72%29.93 "Hg10 mi
2:35 am55 °FClear.5 mph73%29.92 "Hg10 mi
2:15 am55 °FClear.3 mph72%29.92 "Hg10 mi
1:55 am56 °FClear.3 mph70%29.92 "Hg10 mi
1:35 am55 °FClear.3 mph71%29.93 "Hg10 mi
1:15 am55 °FClear.No wind69%29.93 "Hg10 mi
12:55 am55 °FClear.No wind69%29.93 "Hg10 mi
12:35 am55 °FClear.3 mph69%29.93 "Hg10 mi
12:15 am56 °FClear.3 mph67%29.93 "Hg10 mi
11:55 pm
Thu, Oct 17
56 °FClear.3 mph66%29.94 "Hg10 mi
11:35 pm56 °FClear.No wind71%29.94 "Hg10 mi
11:15 pm57 °FClear.3 mph71%29.95 "Hg10 mi
10:35 pm57 °FClear.No wind70%29.96 "Hg10 mi
10:15 pm57 °FClear.No wind70%29.96 "Hg10 mi
9:55 pm58 °FClear.No wind67%29.97 "Hg10 mi
9:35 pm60 °FClear.No wind63%29.97 "Hg10 mi
9:15 pm60 °FClear.No wind65%29.97 "Hg10 mi
8:50 pm61 °FClear.7 mph59%29.97 "Hg10 mi
7:50 pm63 °FClear.7 mph56%29.97 "Hg10 mi
6:50 pm66 °FSunny.7 mph46%29.96 "Hg10 mi
5:50 pm68 °FSunny.7 mph40%29.97 "Hg10 mi
4:50 pm70 °FSunny.7 mph33%29.97 "Hg10 mi
Weather by CustomWeather, © 2019

See weather overview